Date String (YYYY-MM-DD hh:mm:ss) UTC,Instrument flags,Ambient pressure (hPa),Sample flow (lpm),Bypass flow (lpm),Sample temperature (°C),Ambient temperature (°C),ASC tube jacket temperature (°C),LED temperature (°C),Box temperature (°C),Sample RH (%),Span deviation,Mass concentration (μg/m³),Mass concentration (μg/m³),Mass concentration (μg/m³)
DateTimeUTC,F1_M11,P_M11,Q1_M11,Q2_M11,T1_M11,T2_M11,T3_M11,T4_M11,T5_M11,U1_M11,ZSPAN_M11,X0_M11,X2_M11,X1_M11
2023-05-19 05:00:00,,0835.6,5.01,0.00,29.3,27.7,00.0,37.6,30.9,23.5,0003.5,0021.95,0017.23,0016.59
2023-05-19 05:01:00,,0835.6,5.00,0.00,29.3,27.6,00.0,37.6,30.8,23.4,0003.6,0021.89,0017.20,0016.56
2023-05-19 05:02:00,,0835.6,5.00,0.00,29.3,27.7,00.0,37.6,30.9,23.7,0003.7,0021.82,0017.14,0016.52
2023-05-19 05:03:00,,0835.6,4.98,0.00,29.3,27.7,00.0,37.6,30.9,24.8,0003.6,0021.60,0016.90,0016.27
2023-05-19 05:04:00,,0835.6,5.01,0.00,29.3,27.6,00.0,37.6,30.8,25.0,0003.4,0021.47,0016.71,0016.06
2023-05-19 05:05:00,,0835.6,5.01,0.00,29.3,27.6,00.0,37.6,30.9,24.2,0003.2,0021.51,0016.64,0015.96
2023-05-19 05:06:00,,0835.6,5.00,0.00,29.3,27.6,00.0,37.6,30.9,23.7,0003.2,0021.54,0016.61,0015.93
2023-05-19 05:07:00,,0835.6,5.00,0.00,29.3,27.6,00.0,37.6,30.9,23.5,0003.3,0021.52,0016.58,0015.91
2023-05-19 05:08:00,,0835.6,5.00,0.00,29.3,27.6,00.0,37.6,30.8,23.5,0003.3,0021.42,0016.54,0015.90
2023-05-19 05:09:00,,0835.6,5.00,0.00,29.3,27.6,00.0,37.6,30.8,23.5,0003.2,0021.33,0016.46,0015.84
2023-05-19 05:10:00,,0835.6,5.00,0.00,29.3,27.6,00.0,37.6,30.9,23.5,0003.1,0021.26,0016.37,0015.75
2023-05-19 05:11:00,,0835.6,4.99,0.00,29.3,27.6,00.0,37.6,30.9,23.6,0003.1,0021.17,0016.28,0015.67
2023-05-19 05:12:00,,0835.6,5.00,0.00,29.2,27.6,00.0,37.6,30.8,23.9,0003.0,0021.10,0016.20,0015.59
2023-05-19 05:13:00,,0835.7,5.00,0.00,29.2,27.5,00.0,37.6,30.8,24.3,0002.9,0020.79,0015.94,0015.34
2023-05-19 05:14:00,,0835.6,5.00,0.00,29.3,27.5,00.0,37.6,30.8,24.5,0002.8,0020.64,0015.83,0015.24
2023-05-19 05:15:00,,0835.6,5.01,0.00,29.2,27.5,00.0,37.6,30.8,24.9,0002.9,0020.35,0015.64,0015.07
2023-05-19 05:16:00,,0835.6,4.99,0.00,29.2,27.5,00.0,37.6,30.8,24.8,0003.1,0020.01,0015.38,0014.81
2023-05-19 05:17:00,,0835.6,4.99,0.00,29.2,27.5,00.0,37.6,30.8,24.6,0002.9,0019.46,0014.95,0014.38
2023-05-19 05:18:00,,0835.8,5.00,0.00,29.2,27.5,00.0,37.6,30.8,24.7,0002.9,0018.98,0014.56,0013.99
2023-05-19 05:19:00,,0835.6,5.01,0.00,29.2,27.5,00.0,37.6,30.8,24.8,0002.8,0018.73,0014.27,0013.68
2023-05-19 05:20:00,,0835.7,5.01,0.00,29.2,27.5,00.0,37.6,30.8,24.7,0002.7,0018.51,0014.03,0013.43
2023-05-19 05:21:00,,0835.7,4.99,0.00,29.2,27.5,00.0,37.6,30.8,24.5,0002.6,0018.23,0013.78,0013.19
2023-05-19 05:22:00,,0835.8,5.00,0.00,29.2,27.4,00.0,37.6,30.8,24.6,0002.4,0018.03,0013.60,0013.00
2023-05-19 05:23:00,,0835.7,5.00,0.00,29.2,27.4,00.0,37.6,30.8,24.5,0002.3,0018.02,0013.51,0012.88
2023-05-19 05:24:00,,0835.7,5.01,0.00,29.2,27.4,00.0,37.6,30.7,24.7,0002.0,0017.97,0013.50,0012.88
2023-05-19 05:25:00,,0835.7,5.00,0.00,29.2,27.4,00.0,37.6,30.7,24.8,0002.0,0017.75,0013.31,0012.71
2023-05-19 05:26:00,,0835.7,4.99,0.00,29.1,27.4,00.0,37.6,30.7,24.9,0001.7,0017.42,0013.01,0012.42
2023-05-19 05:27:00,,0835.7,5.00,0.00,29.1,27.4,00.0,37.5,30.7,25.2,0001.7,0017.06,0012.72,0012.17
2023-05-19 05:28:00,,0835.7,5.01,0.00,29.2,27.4,00.0,37.5,30.7,25.3,0001.7,0017.08,0012.50,0011.95
2023-05-19 05:29:00,,0835.7,5.01,0.00,29.2,27.5,00.0,37.5,30.8,25.1,0001.6,0017.13,0012.18,0011.66
2023-05-19 05:30:00,,0835.7,4.99,0.00,29.2,27.5,00.0,37.5,30.8,24.7,0001.5,0016.69,0011.86,0011.37
2023-05-19 05:31:00,,0835.8,5.00,0.00,29.2,27.5,00.0,37.5,30.8,24.3,0001.5,0016.44,0011.70,0011.22
2023-05-19 05:32:00,,0835.6,5.00,0.00,29.2,27.5,00.0,37.5,30.8,24.3,0001.5,0016.18,0011.56,0011.13
2023-05-19 05:33:00,,0835.9,5.00,0.00,29.2,27.5,00.0,37.5,30.8,24.9,0001.6,0015.79,0011.19,0010.74
2023-05-19 05:34:00,,0835.7,5.00,0.00,29.2,27.5,00.0,37.5,30.8,25.5,0001.8,0014.99,0010.55,0010.17
2023-05-19 05:35:00,,0835.7,5.01,0.00,29.2,27.5,00.0,37.5,30.8,25.9,0002.2,0014.18,0009.86,0009.47
2023-05-19 05:36:00,,0835.7,5.00,0.00,29.2,27.5,00.0,37.5,30.8,25.5,0002.5,0013.50,0009.28,0008.88
2023-05-19 05:37:00,,0835.7,5.00,0.00,29.2,27.5,00.0,37.5,30.8,24.7,0002.6,0013.10,0008.96,0008.58
2023-05-19 05:38:00,,0835.7,5.00,0.00,29.2,27.5,00.0,37.5,30.8,24.8,0002.6,0012.60,0008.54,0008.17
2023-05-19 05:39:00,,0835.7,4.99,0.00,29.2,27.5,00.0,37.5,30.8,24.9,0002.6,0012.12,0008.17,0007.81
2023-05-19 05:40:00,,0835.7,5.00,0.00,29.2,27.5,00.0,37.5,30.8,24.5,0002.7,0011.18,0007.95,0007.57
2023-05-19 05:41:00,,0835.7,5.00,0.00,29.2,27.5,00.0,37.5,30.8,23.9,0002.9,0011.43,0008.14,0007.72
2023-05-19 05:42:00,,0835.6,5.01,0.00,29.2,27.5,00.0,37.5,30.8,23.9,0002.9,0011.48,0008.20,0007.79
2023-05-19 05:43:00,,0835.6,5.00,0.00,29.2,27.5,00.0,37.5,30.8,24.0,0002.8,0011.30,0008.05,0007.64
2023-05-19 05:44:00,,0835.7,4.99,0.00,29.2,27.5,00.0,37.5,30.8,23.8,0002.7,0011.41,0008.16,0007.73
2023-05-19 05:45:00,,0835.7,5.00,0.00,29.2,27.5,00.0,37.5,30.8,23.6,0002.3,0011.96,0008.60,0008.16
2023-05-19 05:46:00,,0835.7,5.00,0.00,29.2,27.5,00.0,37.5,30.8,23.7,0002.1,0012.45,0009.04,0008.60
2023-05-19 05:47:00,,0835.7,5.01,0.00,29.2,27.5,00.0,37.5,30.8,24.3,0002.2,0012.72,0009.29,0008.86
2023-05-19 05:48:00,,0835.7,4.99,0.00,29.2,27.5,00.0,37.5,30.8,25.0,0002.2,0012.72,0009.30,0008.88
2023-05-19 05:49:00,,0835.7,5.01,0.00,29.2,27.5,00.0,37.5,30.7,25.3,0001.9,0012.95,0009.48,0009.04
2023-05-19 05:50:00,,0835.7,5.01,0.00,29.2,27.5,00.0,37.5,30.8,25.8,0001.9,0013.18,0009.66,0009.22
2023-05-19 05:51:00,,0835.7,5.01,0.00,29.2,27.5,00.0,37.5,30.8,25.6,0001.8,0013.41,0009.79,0009.33
2023-05-19 05:52:00,,0835.7,4.98,0.00,29.2,27.5,00.0,37.5,30.8,25.6,0001.6,0013.15,0009.54,0009.12
2023-05-19 05:53:00,,0835.7,4.99,0.00,29.2,27.5,00.0,37.5,30.8,25.9,0001.7,0012.83,0009.19,0008.78
2023-05-19 05:54:00,,0835.9,5.00,0.00,29.2,27.5,00.0,37.5,30.8,26.2,0002.0,0012.46,0008.87,0008.47
2023-05-19 05:55:00,,0835.8,5.00,0.00,29.2,27.5,00.0,37.5,30.7,26.3,0002.8,0012.02,0008.51,0008.11
2023-05-19 05:56:00,,0835.6,5.01,0.00,29.2,27.5,00.0,37.5,30.7,26.3,0002.9,0011.43,0008.03,0007.66
2023-05-19 05:57:00,,0835.6,5.00,0.00,29.2,27.5,00.0,37.5,30.8,26.0,0003.2,0011.08,0007.68,0007.32
2023-05-19 05:58:00,,0835.7,4.99,0.00,29.2,27.5,00.0,37.5,30.8,26.0,0003.0,0011.00,0007.57,0007.19
2023-05-19 05:59:00,,0835.6,5.01,0.00,29.2,27.5,00.0,37.5,30.7,26.0,0002.8,0011.07,0007.61,0007.23
